N603Q ZZZ-KBOS

Flight info

Callsign N603Q
Flight time N/A
Altitude VFR/055
Route
Aircraft SF50/L-DOV/C

Departure

Time N/A
Airport ZZZ

Arrival

Time 2026-05-04 22:41
Airport Boston Logan International Airport (KBOS)
Time Latitude Longitude Altitude Speed Heading
2026-05-04 21:59 43.57430 -71.39770 3820 ft 94 kts 271°
2026-05-04 21:59 43.57500 -71.40633 4363 ft 93 kts 274°
2026-05-04 21:59 43.57611 -71.41476 4916 ft 90 kts 277°
2026-05-04 21:59 43.57762 -71.42277 5394 ft 92 kts 281°
2026-05-04 22:00 43.57983 -71.43268 5528 ft 122 kts 283°
2026-05-04 22:00 43.57891 -71.44487 5521 ft 144 kts 243°
2026-05-04 22:00 43.56976 -71.45246 5511 ft 173 kts 198°
2026-05-04 22:00 43.55736 -71.44810 5463 ft 202 kts 156°
2026-05-04 22:01 43.54537 -71.43888 5637 ft 193 kts 161°
2026-05-04 22:01 43.53314 -71.43143 5708 ft 193 kts 167°
2026-05-04 22:01 43.52059 -71.42504 5774 ft 193 kts 169°
2026-05-04 22:01 43.50783 -71.41925 5923 ft 190 kts 171°
2026-05-04 22:02 43.49505 -71.41394 5976 ft 193 kts 172°
2026-05-04 22:02 43.48231 -71.40889 6089 ft 191 kts 173°
2026-05-04 22:02 43.46941 -71.40395 6158 ft 192 kts 173°
2026-05-04 22:02 43.45683 -71.39915 6420 ft 184 kts 174°
2026-05-04 22:03 43.44426 -71.39452 6419 ft 190 kts 174°
2026-05-04 22:03 43.43109 -71.38971 6364 ft 196 kts 174°
2026-05-04 22:03 43.41839 -71.38512 6706 ft 181 kts 175°
2026-05-04 22:03 43.40533 -71.38058 6322 ft 207 kts 174°
2026-05-04 22:04 43.39137 -71.37540 6273 ft 205 kts 174°
2026-05-04 22:04 43.37751 -71.37028 5957 ft 215 kts 172°
2026-05-04 22:04 43.36422 -71.36524 6027 ft 209 kts 174°
2026-05-04 22:04 43.34941 -71.35992 5465 ft 222 kts 173°
2026-05-04 22:05 43.33493 -71.35474 5622 ft 199 kts 175°
2026-05-04 22:05 43.32337 -71.35048 6034 ft 186 kts 175°
2026-05-04 22:05 43.31003 -71.34570 5773 ft 202 kts 173°
2026-05-04 22:05 43.29641 -71.34076 5663 ft 205 kts 174°
2026-05-04 22:06 43.28254 -71.33558 5416 ft 212 kts 173°
2026-05-04 22:06 43.26838 -71.33042 5245 ft 212 kts 173°
2026-05-04 22:06 43.25505 -71.32559 5513 ft 192 kts 176°
2026-05-04 22:06 43.24186 -71.32325 5501 ft 187 kts 188°
2026-05-04 22:07 43.22966 -71.32148 5813 ft 188 kts 168°
2026-05-04 22:07 43.21785 -71.31531 6150 ft 177 kts 169°
2026-05-04 22:07 43.20620 -71.30986 6278 ft 180 kts 172°
2026-05-04 22:07 43.19391 -71.30463 6308 ft 188 kts 172°
2026-05-04 22:08 43.18142 -71.29958 6429 ft 187 kts 173°
2026-05-04 22:08 43.16886 -71.29475 6516 ft 189 kts 174°
2026-05-04 22:08 43.15598 -71.28992 6547 ft 193 kts 174°
2026-05-04 22:08 43.14312 -71.28509 6666 ft 190 kts 175°
2026-05-04 22:09 43.13021 -71.28039 6676 ft 195 kts 174°
2026-05-04 22:09 43.11720 -71.27564 6758 ft 194 kts 174°
2026-05-04 22:09 43.10394 -71.27081 6736 ft 197 kts 174°
2026-05-04 22:09 43.09061 -71.26598 6744 ft 198 kts 174°
2026-05-04 22:10 43.07746 -71.26123 6770 ft 199 kts 174°
2026-05-04 22:10 43.06395 -71.25584 6811 ft 199 kts 167°
2026-05-04 22:10 43.05228 -71.24895 6760 ft 178 kts 166°
2026-05-04 22:10 43.04098 -71.24219 6166 ft 176 kts 166°
2026-05-04 22:11 43.03060 -71.23592 6028 ft 149 kts 166°
2026-05-04 22:11 43.02146 -71.22932 5671 ft 146 kts 164°
2026-05-04 22:11 43.01228 -71.22310 5270 ft 144 kts 166°
2026-05-04 22:11 43.00358 -71.21817 5131 ft 125 kts 174°
2026-05-04 22:12 42.99577 -71.21483 4963 ft 116 kts 178°
2026-05-04 22:12 42.98801 -71.21169 4676 ft 121 kts 175°
2026-05-04 22:12 42.97915 -71.20777 4451 ft 148 kts 172°
2026-05-04 22:12 42.96934 -71.20247 4532 ft 145 kts 168°
2026-05-04 22:13 42.96117 -71.19813 4824 ft 127 kts 175°
2026-05-04 22:13 42.95265 -71.19525 5046 ft 109 kts 183°
2026-05-04 22:13 42.94474 -71.19334 5019 ft 123 kts 184°
2026-05-04 22:13 42.93694 -71.19146 5099 ft 114 kts 186°
2026-05-04 22:14 42.92884 -71.19071 5088 ft 117 kts 194°
2026-05-04 22:14 42.92091 -71.19149 5220 ft 110 kts 194°
2026-05-04 22:14 42.91272 -71.19041 5247 ft 118 kts 183°
2026-05-04 22:14 42.90446 -71.18738 5271 ft 124 kts 180°
2026-05-04 22:15 42.89586 -71.18500 5269 ft 127 kts 183°
2026-05-04 22:15 42.88729 -71.18336 5301 ft 127 kts 187°
2026-05-04 22:15 42.87838 -71.18013 5332 ft 136 kts 168°
2026-05-04 22:15 42.86998 -71.17512 5244 ft 134 kts 166°
2026-05-04 22:16 42.86193 -71.16806 5120 ft 137 kts 152°
2026-05-04 22:16 42.85426 -71.16039 4998 ft 135 kts 159°
2026-05-04 22:16 42.84604 -71.15393 4377 ft 157 kts 163°
2026-05-04 22:16 42.83707 -71.14830 4192 ft 129 kts 171°
2026-05-04 22:17 42.82870 -71.14311 3637 ft 146 kts 156°
2026-05-04 22:17 42.82090 -71.13526 3445 ft 123 kts 153°
2026-05-04 22:17 42.81525 -71.12833 3363 ft 113 kts 153°
2026-05-04 22:17 42.80856 -71.12066 3305 ft 131 kts 153°
2026-05-04 22:18 42.80101 -71.11247 3089 ft 146 kts 153°
2026-05-04 22:18 42.79289 -71.10384 3018 ft 146 kts 152°
2026-05-04 22:18 42.78499 -71.09534 3003 ft 143 kts 153°
2026-05-04 22:18 42.77738 -71.08705 2996 ft 139 kts 152°
2026-05-04 22:19 42.76991 -71.07889 3001 ft 136 kts 152°
2026-05-04 22:19 42.76255 -71.07088 2997 ft 134 kts 153°
2026-05-04 22:19 42.75534 -71.06288 2999 ft 133 kts 153°
2026-05-04 22:19 42.74823 -71.05490 2999 ft 132 kts 153°
2026-05-04 22:20 42.74117 -71.04700 2998 ft 131 kts 153°
2026-05-04 22:20 42.73414 -71.03915 2996 ft 131 kts 153°
2026-05-04 22:20 42.72702 -71.03166 3000 ft 129 kts 155°
2026-05-04 22:20 42.71986 -71.02432 3004 ft 128 kts 155°
2026-05-04 22:21 42.71273 -71.01695 3004 ft 127 kts 156°
2026-05-04 22:21 42.70569 -71.00976 3004 ft 127 kts 155°
2026-05-04 22:21 42.69862 -71.00250 3007 ft 127 kts 156°
2026-05-04 22:21 42.69155 -70.99519 3004 ft 127 kts 156°
2026-05-04 22:22 42.68442 -70.98794 3005 ft 127 kts 156°
2026-05-04 22:22 42.67733 -70.98066 3007 ft 127 kts 155°
2026-05-04 22:22 42.67033 -70.97337 3007 ft 127 kts 155°
2026-05-04 22:22 42.66337 -70.96600 3009 ft 127 kts 155°
2026-05-04 22:23 42.65640 -70.95860 3010 ft 127 kts 155°
2026-05-04 22:23 42.64944 -70.95122 3008 ft 127 kts 154°
2026-05-04 22:23 42.64247 -70.94382 3008 ft 127 kts 155°
2026-05-04 22:23 42.63547 -70.93630 3010 ft 127 kts 155°
2026-05-04 22:24 42.62853 -70.92881 3010 ft 127 kts 155°
2026-05-04 22:24 42.62162 -70.92148 3014 ft 127 kts 155°
2026-05-04 22:24 42.61465 -70.91402 3015 ft 127 kts 154°
2026-05-04 22:24 42.60768 -70.90647 3013 ft 127 kts 155°
2026-05-04 22:25 42.60075 -70.89902 3014 ft 127 kts 154°
2026-05-04 22:25 42.59380 -70.89166 3014 ft 127 kts 155°
2026-05-04 22:25 42.58682 -70.88413 3017 ft 127 kts 154°
2026-05-04 22:25 42.57992 -70.87665 3020 ft 127 kts 154°
2026-05-04 22:26 42.57303 -70.86922 3020 ft 127 kts 155°
2026-05-04 22:26 42.56599 -70.86170 3017 ft 127 kts 155°
2026-05-04 22:26 42.55907 -70.85426 3017 ft 127 kts 154°
2026-05-04 22:26 42.55209 -70.84685 3018 ft 127 kts 154°
2026-05-04 22:27 42.54512 -70.83939 3019 ft 127 kts 155°
2026-05-04 22:27 42.53822 -70.83192 3016 ft 128 kts 154°
2026-05-04 22:27 42.53117 -70.82438 3019 ft 128 kts 154°
2026-05-04 22:27 42.52422 -70.81694 3017 ft 127 kts 154°
2026-05-04 22:28 42.51723 -70.80955 3014 ft 128 kts 155°
2026-05-04 22:28 42.51018 -70.80204 3020 ft 128 kts 154°
2026-05-04 22:28 42.50319 -70.79464 3017 ft 128 kts 155°
2026-05-04 22:28 42.49613 -70.78704 3014 ft 128 kts 154°
2026-05-04 22:29 42.48911 -70.77975 3015 ft 127 kts 155°
2026-05-04 22:29 42.48203 -70.77253 3017 ft 127 kts 156°
2026-05-04 22:29 42.47488 -70.76519 3011 ft 128 kts 155°
2026-05-04 22:29 42.46819 -70.75817 3015 ft 112 kts 160°
2026-05-04 22:30 42.46154 -70.75470 2955 ft 93 kts 189°
2026-05-04 22:30 42.45385 -70.75616 2880 ft 115 kts 205°
2026-05-04 22:30 42.44685 -70.75938 2721 ft 121 kts 212°
2026-05-04 22:30 42.43839 -70.76627 2560 ft 155 kts 219°
2026-05-04 22:31 42.43002 -70.77583 2701 ft 158 kts 229°
2026-05-04 22:31 42.42321 -70.78738 2790 ft 158 kts 234°
2026-05-04 22:31 42.41637 -70.79977 2762 ft 168 kts 234°
2026-05-04 22:31 42.40945 -70.81229 2675 ft 174 kts 235°
2026-05-04 22:32 42.40245 -70.82552 2603 ft 167 kts 237°
2026-05-04 22:32 42.39753 -70.83675 2425 ft 137 kts 245°
2026-05-04 22:32 42.39375 -70.84934 2250 ft 118 kts 250°
2026-05-04 22:32 42.39187 -70.85719 2436 ft 85 kts 250°
2026-05-04 22:33 42.39009 -70.86489 2570 ft 90 kts 248°
2026-05-04 22:33 42.38794 -70.87319 2679 ft 92 kts 251°
2026-05-04 22:33 42.38617 -70.88175 2795 ft 96 kts 251°
2026-05-04 22:33 42.38390 -70.89020 2739 ft 91 kts 243°
2026-05-04 22:34 42.38113 -70.89745 2577 ft 87 kts 244°
2026-05-04 22:34 42.37855 -70.90501 2301 ft 91 kts 245°
2026-05-04 22:34 42.37653 -70.91259 2054 ft 80 kts 247°
2026-05-04 22:34 42.37433 -70.91882 1875 ft 64 kts 244°
2026-05-04 22:35 42.37246 -70.92443 1476 ft 72 kts 243°
2026-05-04 22:35 42.37075 -70.93096 1143 ft 84 kts 249°
2026-05-04 22:35 42.36896 -70.93878 971 ft 83 kts 250°
2026-05-04 22:35 42.36801 -70.94601 805 ft 74 kts 255°
2026-05-04 22:36 42.36688 -70.95287 711 ft 69 kts 250°
2026-05-04 22:36 42.36534 -70.96024 610 ft 84 kts 247°
2026-05-04 22:36 42.36373 -70.96787 498 ft 81 kts 255°
2026-05-04 22:36 42.36274 -70.97469 298 ft 76 kts 251°
2026-05-04 22:37 42.36155 -70.98109 203 ft 62 kts 249°
2026-05-04 22:37 42.36037 -70.98723 189 ft 63 kts 251°
2026-05-04 22:37 42.35934 -70.99411 412 ft 83 kts 253°
2026-05-04 22:37 42.35818 -71.00229 705 ft 91 kts 251°
2026-05-04 22:38 42.35712 -71.00816 891 ft 77 kts 253°
2026-05-04 22:38 42.35597 -71.01757 961 ft 117 kts 256°
2026-05-04 22:38 42.35794 -71.02927 1178 ft 153 kts 314°
2026-05-04 22:38 42.36945 -71.03150 1128 ft 195 kts 22°
2026-05-04 22:39 42.37855 -71.02625 1473 ft 110 kts 359°
2026-05-04 22:39 42.38654 -71.02361 1378 ft 114 kts
2026-05-04 22:39 42.39272 -71.01749 1045 ft 130 kts 83°
2026-05-04 22:39 42.39060 -71.00555 892 ft 113 kts 142°
2026-05-04 22:40 42.38466 -71.00159 512 ft 86 kts 194°
2026-05-04 22:40 42.37946 -71.00396 172 ft 77 kts 205°
2026-05-04 22:40 42.37472 -71.00633 48 ft 72 kts 206°
2026-05-04 22:40 42.37032 -71.00839 13 ft 54 kts 202°
2026-05-04 22:41 42.36734 -71.01002 13 ft 42 kts 204°
2026-05-04 22:41 42.36651 -71.01152 13 ft 4 kts 326°
2026-05-04 22:41 42.36660 -71.01157 13 ft 0 kts 334°
2026-05-04 22:41 42.36660 -71.01158 13 ft 0 kts 333°
2026-05-04 22:42 42.36764 -71.01141 13 ft 21 kts 352°
2026-05-04 22:42 42.36863 -71.01251 13 ft 23 kts 321°
2026-05-04 22:42 42.36976 -71.01389 13 ft 21 kts 321°
2026-05-04 22:42 42.37090 -71.01537 12 ft 23 kts 315°
2026-05-04 22:43 42.37181 -71.01660 13 ft 19 kts 302°
2026-05-04 22:43 42.37250 -71.01787 13 ft 13 kts 322°
2026-05-04 22:43 42.37359 -71.01911 13 ft 12 kts 328°
2026-05-04 22:43 42.37396 -71.01961 13 ft 0 kts 294°
2026-05-04 22:44 42.37397 -71.01963 13 ft 0 kts 300°
2026-05-04 22:44 42.37418 -71.02014 13 ft 10 kts 220°
2026-05-04 22:44 42.37371 -71.02019 13 ft 0 kts 152°